Regional Weather Roundup
Issued by NWS Grand Forks, ND

Home | Current Version | Previous Version | Text Only | Print | Product List | Glossary On
Versions: 1 2 3 4 5 6 7 8 9 10 11 12 13 14 15 16 17 18 19 20 21 22 23 24 25 26 27 28 29 30 31 32 33 34 35 36 37 38 39 40 41 42 43 44 45 46 47 48 49 50
000
ASUS43 KFGF 210331
RWRFGF
PRAIRIE TO PINES  WEATHER ROUNDUP
NATIONAL WEATHER SERVICE EASTERN NORTH DAKOTA/GRAND FORKS ND
1000 PM CDT MON APR 20 2015

 **SATELLITE DATA USED TO AUGMENT SKY COVER AT AUTOMATED STATIONS**
 *****  WEATHER ACROSS EASTERN NORTH DAKOTA  *****

CITY           SKY/WX    TMP DP  RH WIND       PRES   REMARKS
GRAND FORKS    CLOUDY    35  28  75 N21G30    29.65R WCI  24
GRAND FRKS AFB MIX PCPN  36  28  75 N23G29    29.65S
GRAND FRKS NWS   N/A     32 N/A N/A N16         N/A  WCI  21
DEVILS LAKE    CLEAR     34  25  69 N22       29.71R WCI  22
FARGO          CLOUDY    37  31  78 N13       29.65R
WAHPETON ARPT  CLOUDY    36  30  80 N13G18    29.65S
$$

 ***** WEATHER ACROSS CENTRAL AND WESTERN NORTH DAKOTA  *****

CITY           SKY/WX    TMP DP  RH WIND       PRES   REMARKS
BISMARCK       CLEAR     43   8  23 NW12      29.78R
MINOT          PTCLDY    40  14  34 NW12      29.77R
JAMESTOWN      PTCLDY    37  25  61 N9        29.68S
MINOT AFB      MOCLDY    41  15  35 N12       29.77R
GARRISON         N/A     35  14  42 NW12      29.78R
WILLISTON      CLEAR     39  14  36 CALM      29.81S
DICKINSON      CLEAR     35  16  45 W3        29.80S
HETTINGER      CLEAR     28  15  58 NW3       29.84S
$$

 *****  OTHER AIRPORT OBSERVATIONS IN OUR AREA  *****

CITY           SKY/WX    TMP DP  RH WIND       PRES   REMARKS
WALHALLA       CLOUDY    32  30  93 NW24G32   29.68F WCI  19
GRAFTON AIRPOR CLOUDY    34  30  86 NW23G38   29.66S WCI  22
VALLEY CITY AR CLOUDY    36  30  80 N12       29.68S
CANDO          FAIR      32  27  80 N16       29.73S WCI  21
CAVALIER APRT  CLOUDY    32  27  80 NW18G29   29.66F WCI  20
GWINNER        MOCLDY    37  28  70 NW12      29.70S
ROLLA          FAIR      32  27  80 N22G28    29.74R WCI  19
 ***** THE ABOVE OBSERVATIONS ARE NON NWS ARE NOT QUALITY
       CONTROLLED AND MAY MIS-REPORT RAIN FOR SNOW...
$$

  *****  WEATHER ACROSS NORTHERN MINNESOTA  *****

CITY           SKY/WX    TMP DP  RH WIND       PRES   REMARKS
FLAG ISLAND    CLOUDY    32  28  86 NW23      29.45S FOG     WCI  19
WARROAD        LGT SNOW  30  27  86 NW16G23   29.50S WCI  19
ROSEAU         FLURRIES  30  27  86 NW17      29.52F WCI  18
HALLOCK        CLOUDY    34  28  80 NW22G33   29.61F WCI  22
THF RVR FALLS  CLOUDY    32  27  80 NW25G32   29.58S WCI  19
BAUDETTE       CLOUDY    32  27  81 NW17G28   29.44S WCI  21
WASKISH        FLURRIES  32  28  86 W21       29.46F WCI  20
CROOKSTON      CLOUDY    34  28  80 N28G35    29.63S WCI  20
$$
  *****  WEATHER ACROSS CENTRAL AND WEST MINNESOTA  *****

CITY           SKY/WX    TMP DP  RH WIND       PRES   REMARKS
FOSSTON        LGT SNOW  30  27  86 NW15G21   29.57S WCI  19
BEMIDJI        CLOUDY    31  26  83 NW23G31   29.50R WCI  18
PARK RAPIDS    CLOUDY    38  27  64 NW18      29.51S
ELBOW LAKE     CLOUDY    34  32  92 NW22G28   29.62S WCI  22
WADENA         CLOUDY    32  27  80 NW18G32   29.55S WCI  20
DETROIT LAKES  MIX PCPN  32  30  93 NW23G30   29.59S WCI  19
MOORHEAD       CLOUDY    36  30  80 N14       29.65S
FERGUS FALLS   CLOUDY    34  30  86 NW18G29   29.65S WCI  23
MORRIS MN      CLOUDY    36  34  93 NW15      29.63S
STAPLES        CLOUDY    32  27  80 NW16G23   29.53S WCI  21
$$
  *****  WEATHER ELSEWHERE ACROSS MINNESOTA  *****

CITY           SKY/WX    TMP DP  RH WIND       PRES   REMARKS
DULUTH         LGT SNOW  33  29  85 W16G26    29.36F FOG     WCI  23
INTRNTL FALLS  FLURRIES  33  30  88 NW13G23   29.37S WCI  24
ELY            LGT SNOW  32  30  93 W8        29.29F WCI  25
CLOQUET        FLURRIES  34  30  86 W14       29.40S WCI  24
WHEATON        CLOUDY    37  27  65 NW18G26   29.68R
BRAINERD       LGT SNOW  33  30  88 W15G24    29.50S FOG     WCI  23
HIBBING        LGT SNOW  33  28  81 W12       29.37S WCI  24
ALEXANDRIA     LGT SNOW  33  29  85 NW17G29   29.60R FOG     WCI  22
SAINT CLOUD    CLOUDY    35  27  72 NW16G26   29.54S
MINNEAPOLIS    LGT RAIN  37  32  82 W18G26    29.54R
$$

  *****  WEATHER ACROSS SOUTH DAKOTA  *****

CITY           SKY/WX    TMP DP  RH WIND       PRES   REMARKS
SIOUX FALLS    CLEAR     39  22  50 NW7       29.71R
BROOKINGS      CLEAR     36  25  64 NW8       29.71S
WATERTOWN      CLEAR     38  26  62 NW16      29.69R
HURON          CLEAR     36  13  38 NW12      29.74R
SISSETON         N/A     38  29  70 N17       29.67R
ABERDEEN       CLEAR     36  24  62 N7        29.73R
MITCHELL       CLEAR     43   7  22 NW12      29.76R
PIERRE         MOCLDY    45  18  34 NW14      29.79R
MOBRIDGE       CLEAR     40  13  33 NW10      29.76R
RAPID CITY     PTCLDY    37  23  56 N9        29.88R
$$

  *****  SOME WEATHER IN NEARBY STATES *****

CITY           SKY/WX    TMP DP  RH WIND       PRES   REMARKS
GLASGOW MT     CLOUDY    47  20  34 SE9       29.79F
GREAT FALLS MT MOCLDY    53  27  36 E9        29.84R
CHEYENNE WY    CLEAR     37  25  61 W10       29.94R
SCOTTSBLUFF NE CLEAR     43  26  51 CALM      29.88R
OMAHA NE       CLEAR     50  16  25 W10       29.79R
DES MOINES IA  CLEAR     43  22  43 W9        29.72R
DAVENPORT IA   PTCLDY    36  32  85 NW5       29.69R
CHICAGO IL     PTCLDY    43  31  62 W12       29.61R
EAU CLAIRE WI  CLOUDY    37  28  70 W16G26    29.48R
LA CROSSE WI   PTCLDY    42  30  62 W18G29    29.53F
$$

  *****  SOME NATIONAL WEATHER *****

CITY           SKY/WX    TMP DP  RH WIND       PRES   REMARKS
LA GUARDIA NY  FOG       50  50 100 NE7       29.61F VSB 1/4
RALEIGH NC     MOCLDY    68  63  83 S15G26    29.67F THUNDER
ATLANTA GA     PTCLDY    63  46  54 W13       29.86R
NEW ORLEANS LA CLOUDY    69  50  50 N8        29.97R
OKLAHOMA CITY  CLEAR     54  37  52 SE5       29.97R
ALBUQUERQUE NM MOCLDY    64  23  21 SW5       29.94R
SALT LAKE CITY CLEAR     59  30  33 CALM      29.87R
LOS ANGELES CA PTCLDY    58  52  80 W9        29.87R
BOISE ID       CLEAR     64  28  25 N5        29.81S
SEATTLE WA     PTCLDY    65  35  33 N7        29.84S
$$

*** WEATHER ACROSS MANITOBA...SASKATCHEWAN AND ONTARIO ***
                ***ONTARIO***

CITY           SKY/WX    TMP DP  RH WIND       PRES   REMARKS
GERALDTON      LGT SNOW  32  30  93 NW7       29.08F VSB 3/4
THUNDER BAY    LGT RAIN  34  34 100 W10       29.21F
SIOUX LOOKOUT  LGT SNOW  32  30  93 N10G20    29.29S WCI  24
TORONTO        PTCLDY    52  43  71 W18G26    29.45R
BIG TROUT LK   LGT SNOW  23  21  93 NE17G32   29.52S WCI   9
PICKLE LAKE    NOT AVBL
DRYDEN         LGT SNOW  32  30  93 NW10G17   29.31F WCI  24
KENORA         LGT SNOW  30  28  93 NW15G22   29.41F FOG     WCI  19
$$
                *** MANITOBA***

CITY           SKY/WX    TMP DP  RH WIND       PRES   REMARKS
BRANDON        MOCLDY    36  23  60 N21G30    29.79S
DAUPHIN        CLOUDY    37  28  70 N18       29.83S
ISLAND LAKE    LGT SNOW  27  23  86 N17G26    29.76R WCI  14
PILOT MOUND      N/A     32  28  86 N24G33      N/A  WCI  19
THE PAS        MOCLDY    37  27  65 NE3       29.94R
THOMPSON       PTCLDY    30  25  80 NE7       29.99R WCI  23
WINNIPEG       FLURRIES  32  27  80 NW22      29.64S WCI  19
LYNN LAKE      CLEAR     36  18  48 SE7       29.98S
CHURCHILL      CLOUDY    21  19  93 NE18      30.14F WCI   6
GILLAM         PTCLDY    25  14  63 NE15      30.00S WCI  12
$$
                ***SASKATCHEWAN***

CITY           SKY/WX    TMP DP  RH WIND       PRES   REMARKS
ESTEVAN        CLOUDY    41  23  48 N18G24    29.81S
KINDERSLEY     PTCLDY    46  30  53 NE7       29.79
LLOYDMINSTER   PTCLDY    46  27  46 NE13      29.84R
PRINCE ALBERT  PTCLDY    34  27  75 NE2       29.91R
REGINA         MOCLDY    39  27  60 NE18G28   29.84R
YORKTON        CLEAR     32  23  69 NE7       29.84R
N. BATTLEFORD  CLEAR     37  30  75 SE14G23   29.90R
LA RONGE       PTCLDY    32  18  55 CALM      29.95R
SASKATOON      PTCLDY    37  30  75 E9        29.88R
SWIFT CURRENT  CLEAR     45  23  42 E6        29.76R
$$
NOTE: THESE ARE AUTOMATED STATIONS WITH LIMITED QUALITY CONTROL
      "FAIR" INDICATES FEW OR NO CLOUDS BELOW 12,000 FEET WITH NO
      SIGNIFICANT WEATHER AND/OR OBSTRUCTIONS TO VISIBILITY.
      SKY/WX - SKY CONDITION AND SIGNIFICANT WEATHER.
      TMP - AIR TEMPERATURE.    DP   - DEWPOINT TEMPERATURE.
      RH  - RELATIVE HUMIDITY.  PRES - PRESSURE.
      HX  - HEAT INDEX.         WCI  - WIND CHILL INDEX.
$


USA.gov is the U.S. government's official web portal to all federal, state and local government web resources and services.